| time (UTC) | temp F | wind direction | speed MPH | gust MPH | rain 1hr in | rain 24hr in | rain mn in | humidity % | barometer mb |
| 20260906202458 | 91 | 158 | 7.0 | 19.0 | 0.00 | 0.10 | 0.10 | 46 | 1017.7 |
| 20260906201929 | 91 | 167 | 7.0 | 16.0 | 0.00 | 0.10 | 0.10 | 46 | 1017.6 |
| 20260906201402 | 91 | 153 | 7.0 | 17.0 | 0.00 | 0.10 | 0.10 | 46 | 1017.7 |
| 20260906200859 | 90 | 183 | 7.0 | 17.0 | 0.00 | 0.10 | 0.10 | 46 | 1017.7 |
| 20260906200344 | 90 | 133 | 8.0 | 19.0 | 0.00 | 0.10 | 0.10 | 47 | 1017.7 |
| 20260906195846 | 90 | 156 | 8.0 | 19.0 | 0.00 | 0.10 | 0.10 | 46 | 1017.8 |
| 20260906195534 | 91 | 132 | 7.0 | 18.0 | 0.00 | 0.10 | 0.10 | 46 | 1017.8 |
| 20260906195423 | 91 | 132 | 7.0 | 18.0 | 0.00 | 0.10 | 0.10 | 46 | 1017.8 |
| 20260906195036 | 91 | 149 | 7.0 | 16.0 | 0.00 | 0.10 | 0.10 | 44 | 1018.0 |
| 20260906194920 | 91 | 149 | 7.0 | 16.0 | 0.00 | 0.10 | 0.10 | 44 | 1018.0 |
| 20260906194313 | 91 | 195 | 7.0 | 17.0 | 0.00 | 0.10 | 0.10 | 46 | 1017.8 |
| 20260906194048 | 91 | 142 | 7.0 | 17.0 | 0.00 | 0.10 | 0.10 | 45 | 1018.0 |
| 20260906193913 | 91 | 142 | 7.0 | 17.0 | 0.00 | 0.10 | 0.10 | 45 | 1018.0 |
| 20260906193250 | 91 | 140 | 6.0 | 16.0 | 0.00 | 0.10 | 0.10 | 44 | 1018.1 |
| 20260906192727 | 91 | 202 | 6.0 | 16.0 | 0.00 | 0.10 | 0.10 | 43 | 1018.2 |
| 20260906192223 | 91 | 151 | 7.0 | 17.0 | 0.00 | 0.10 | 0.10 | 43 | 1018.2 |
| 20260906191720 | 91 | 166 | 7.0 | 19.0 | 0.00 | 0.10 | 0.10 | 43 | 1018.3 |
| 20260906191148 | 92 | 130 | 6.0 | 19.0 | 0.00 | 0.10 | 0.10 | 43 | 1018.1 |
| 20260906190639 | 91 | 165 | 5.0 | 19.0 | 0.00 | 0.10 | 0.10 | 43 | 1018.2 |
| 20260906190416 | 91 | 195 | 6.0 | 19.0 | 0.00 | 0.10 | 0.10 | 45 | 1018.3 |
| 20260906190251 | 91 | 195 | 6.0 | 19.0 | 0.00 | 0.10 | 0.10 | 45 | 1018.3 |
| 20260906185609 | 90 | 161 | 6.0 | 14.0 | 0.00 | 0.10 | 0.10 | 46 | 1018.4 |
| 20260906185047 | 90 | 138 | 6.0 | 15.0 | 0.00 | 0.10 | 0.10 | 47 | 1018.4 |
| 20260906184523 | 90 | 180 | 6.0 | 16.0 | 0.00 | 0.10 | 0.10 | 48 | 1018.7 |
| 20260906184018 | 90 | 105 | 5.0 | 16.0 | 0.00 | 0.10 | 0.10 | 47 | 1018.4 |
| 20260906183507 | 89 | 122 | 5.0 | 15.0 | 0.00 | 0.10 | 0.10 | 48 | 1018.4 |
| 20260906183333 | 88 | 144 | 6.0 | 17.0 | 0.00 | 0.10 | 0.10 | 51 | 1018.6 |
| 20260906183253 | 88 | 144 | 6.0 | 17.0 | 0.00 | 0.10 | 0.10 | 51 | 1018.6 |
| 20260906182725 | 88 | 0 | 7.0 | 17.0 | 0.00 | 0.10 | 0.10 | 50 | 1018.6 |
| 20260906182610 | 88 | 0 | 7.0 | 17.0 | 0.00 | 0.10 | 0.10 | 50 | 1018.6 |
| 20260906181943 | 88 | 0 | 7.0 | 17.0 | 0.00 | 0.10 | 0.10 | 51 | 1018.7 |
| 20260906181419 | 87 | 0 | 6.0 | 17.0 | 0.00 | 0.10 | 0.10 | 51 | 1018.8 |
| 20260906180900 | 87 | 0 | 6.0 | 14.0 | 0.00 | 0.10 | 0.10 | 52 | 1018.9 |
| 20260906180344 | 87 | 0 | 6.0 | 14.0 | 0.00 | 0.10 | 0.10 | 53 | 1019.0 |
| 20260906175841 | 86 | 0 | 6.0 | 14.0 | 0.00 | 0.10 | 0.10 | 54 | 1019.1 |
| 20260906175342 | 86 | 0 | 6.0 | 14.0 | 0.00 | 0.10 | 0.10 | 54 | 1019.1 |
| 20260906174942 | 85 | 0 | 6.0 | 16.0 | 0.00 | 0.10 | 0.10 | 56 | 1019.3 |
| 20260906174834 | 85 | 0 | 6.0 | 16.0 | 0.00 | 0.10 | 0.10 | 56 | 1019.2 |
| 20260906174620 | 85 | 0 | 6.0 | 16.0 | 0.00 | 0.10 | 0.10 | 56 | 1019.3 |
| 20260906173821 | 85 | 0 | 5.0 | 13.0 | 0.00 | 0.10 | 0.10 | 56 | 1019.4 |
| 20260906173315 | 84 | 0 | 6.0 | 14.0 | 0.00 | 0.10 | 0.10 | 57 | 1019.5 |
| 20260906172810 | 84 | 0 | 6.0 | 14.0 | 0.00 | 0.10 | 0.10 | 59 | 1019.7 |
| 20260906172308 | 83 | 0 | 5.0 | 16.0 | 0.00 | 0.10 | 0.10 | 60 | 1019.7 |
| 20260906171808 | 82 | 0 | 5.0 | 17.0 | 0.00 | 0.10 | 0.10 | 62 | 1019.8 |
| 20260906171310 | 82 | 0 | 7.0 | 17.0 | 0.00 | 0.10 | 0.10 | 63 | 1019.9 |
| 20260906171252 | 81 | 0 | 8.0 | 21.0 | 0.00 | 0.10 | 0.10 | 64 | 1020.0 |
| 20260906170905 | 81 | 0 | 8.0 | 21.0 | 0.00 | 0.10 | 0.10 | 64 | 1020.0 |
| 20260906170259 | 81 | 0 | 7.0 | 21.0 | 0.00 | 0.10 | 0.10 | 65 | 1020.1 |
| 20260906165747 | 80 | 0 | 7.0 | 13.0 | 0.00 | 0.10 | 0.10 | 67 | 1020.2 |
| 20260906165225 | 80 | 0 | 8.0 | 15.0 | 0.00 | 0.10 | 0.10 | 68 | 1020.4 |
| 20260906164934 | 80 | 0 | 7.0 | 14.0 | 0.00 | 0.10 | 0.10 | 69 | 1020.5 |
| 20260906164817 | 80 | 0 | 7.0 | 14.0 | 0.00 | 0.10 | 0.10 | 69 | 1020.5 |
| 20260906164159 | 79 | 0 | 6.0 | 14.0 | 0.00 | 0.10 | 0.10 | 70 | 1020.5 |
| 20260906163646 | 78 | 0 | 7.0 | 16.0 | 0.00 | 0.10 | 0.10 | 72 | 1020.6 |
| 20260906163132 | 78 | 0 | 8.0 | 16.0 | 0.00 | 0.10 | 0.10 | 73 | 1020.6 |
| 20260906162632 | 78 | 0 | 8.0 | 19.0 | 0.00 | 0.10 | 0.10 | 73 | 1020.6 |
| 20260906162353 | 77 | 0 | 7.0 | 19.0 | 0.00 | 0.10 | 0.10 | 75 | 1020.6 |
| 20260906162233 | 77 | 0 | 7.0 | 19.0 | 0.00 | 0.10 | 0.10 | 75 | 1020.6 |
| 20260906161629 | 77 | 0 | 8.0 | 15.0 | 0.00 | 0.10 | 0.10 | 78 | 1020.5 |
| 20260906161121 | 76 | 0 | 10.0 | 17.0 | 0.00 | 0.10 | 0.10 | 79 | 1020.5 |
| 20260906160632 | 76 | 0 | 10.0 | 17.0 | 0.00 | 0.10 | 0.10 | 79 | 1020.6 |
| 20260906160115 | 75 | 0 | 10.0 | 18.0 | 0.00 | 0.10 | 0.10 | 79 | 1020.8 |
| 20260906160041 | 75 | 0 | 9.0 | 19.0 | 0.00 | 0.10 | 0.10 | 79 | 1020.8 |
| 20260906155656 | 75 | 0 | 9.0 | 19.0 | 0.00 | 0.10 | 0.10 | 79 | 1020.8 |
| 20260906155054 | 75 | 0 | 9.0 | 18.0 | 0.00 | 0.10 | 0.10 | 80 | 1020.6 |
| 20260906154743 | 75 | 0 | 10.0 | 18.0 | 0.00 | 0.10 | 0.10 | 81 | 1020.5 |
| 20260906154626 | 75 | 0 | 10.0 | 18.0 | 0.00 | 0.10 | 0.10 | 81 | 1020.5 |
| 20260906153955 | 74 | 0 | 10.0 | 18.0 | 0.00 | 0.10 | 0.10 | 81 | 1020.6 |
| 20260906153707 | 74 | 0 | 9.0 | 18.0 | 0.00 | 0.10 | 0.10 | 81 | 1020.8 |
| 20260906153546 | 74 | 0 | 9.0 | 18.0 | 0.00 | 0.10 | 0.10 | 81 | 1020.8 |
| 20260906152913 | 74 | 0 | 7.0 | 17.0 | 0.00 | 0.10 | 0.10 | 83 | 1020.8 |
| 20260906152354 | 74 | 0 | 7.0 | 17.0 | 0.00 | 0.10 | 0.10 | 82 | 1020.8 |
| 20260906151841 | 74 | 0 | 7.0 | 16.0 | 0.00 | 0.10 | 0.10 | 82 | 1020.8 |
| 20260906151316 | 74 | 0 | 8.0 | 17.0 | 0.00 | 0.10 | 0.10 | 83 | 1020.8 |
| 20260906150802 | 73 | 0 | 7.0 | 17.0 | 0.00 | 0.10 | 0.10 | 85 | 1020.8 |
| 20260906150529 | 73 | 0 | 6.0 | 15.0 | 0.00 | 0.10 | 0.10 | 87 | 1020.5 |
| 20260906150408 | 73 | 0 | 6.0 | 15.0 | 0.00 | 0.10 | 0.10 | 87 | 1020.5 |
| 20260906145759 | 72 | 0 | 6.0 | 15.0 | 0.00 | 0.10 | 0.10 | 89 | 1020.5 |
| 20260906145235 | 71 | 0 | 6.0 | 15.0 | 0.00 | 0.10 | 0.10 | 90 | 1020.5 |
| 20260906144724 | 71 | 0 | 6.0 | 13.0 | 0.00 | 0.10 | 0.10 | 91 | 1020.5 |
| 20260906144419 | 70 | 0 | 6.0 | 13.0 | 0.00 | 0.10 | 0.10 | 92 | 1020.5 |
| 20260906144301 | 70 | 0 | 6.0 | 13.0 | 0.00 | 0.10 | 0.10 | 92 | 1020.5 |
| 20260906143631 | 70 | 0 | 7.0 | 14.0 | 0.00 | 0.10 | 0.10 | 92 | 1020.4 |
| 20260906143126 | 70 | 0 | 7.0 | 17.0 | 0.00 | 0.10 | 0.10 | 93 | 1020.2 |
| 20260906142606 | 70 | 0 | 6.0 | 17.0 | 0.00 | 0.10 | 0.10 | 93 | 1020.2 |
| 20260906142431 | 69 | 0 | 6.0 | 15.0 | 0.00 | 0.10 | 0.10 | 94 | 1020.3 |
| 20260906142359 | 69 | 0 | 6.0 | 15.0 | 0.00 | 0.10 | 0.10 | 94 | 1020.3 |
| 20260906141600 | 69 | 0 | 7.0 | 15.0 | 0.00 | 0.10 | 0.10 | 94 | 1020.3 |
| 20260906141059 | 69 | 0 | 8.0 | 17.0 | 0.00 | 0.10 | 0.10 | 93 | 1020.4 |
| 20260906140934 | 68 | 0 | 7.0 | 17.0 | 0.00 | 0.10 | 0.10 | 93 | 1020.3 |
| 20260906140850 | 68 | 0 | 7.0 | 17.0 | 0.00 | 0.10 | 0.10 | 93 | 1020.3 |
| 20260906140109 | 69 | 0 | 7.0 | 17.0 | 0.00 | 0.10 | 0.10 | 93 | 1020.5 |
| 20260906135528 | 69 | 0 | 6.0 | 15.0 | 0.00 | 0.10 | 0.10 | 93 | 1020.5 |
| 20260906135002 | 69 | 0 | 6.0 | 11.0 | 0.00 | 0.10 | 0.10 | 93 | 1020.3 |
| 20260906134659 | 68 | 0 | 5.0 | 15.0 | 0.01 | 0.10 | 0.10 | 93 | 1020.5 |
| 20260906134544 | 68 | 0 | 5.0 | 15.0 | 0.01 | 0.10 | 0.10 | 93 | 1020.5 |
| 20260906133951 | 68 | 0 | 7.0 | 15.0 | 0.02 | 0.10 | 0.10 | 93 | 1020.1 |
| 20260906133930 | 68 | 0 | 6.0 | 15.0 | 0.01 | 0.10 | 0.10 | 93 | 1020.3 |
| 20260906133543 | 68 | 0 | 7.0 | 15.0 | 0.02 | 0.10 | 0.10 | 93 | 1020.1 |
| 20260906132923 | 68 | 0 | 7.0 | 15.0 | 0.04 | 0.10 | 0.10 | 93 | 1020.1 |
| 20260906132424 | 68 | 0 | 6.0 | 12.0 | 0.06 | 0.10 | 0.10 | 93 | 1020.0 |
| 20260906131906 | 68 | 0 | 4.0 | 11.0 | 0.09 | 0.10 | 0.10 | 93 | 1020.2 |
| 20260906131601 | 68 | 0 | 5.0 | 9.0 | 0.09 | 0.10 | 0.10 | 93 | 1020.0 |
| 20260906131431 | 68 | 0 | 5.0 | 9.0 | 0.09 | 0.10 | 0.10 | 93 | 1020.0 |
| 20260906130800 | 68 | 0 | 4.0 | 9.0 | 0.10 | 0.10 | 0.10 | 93 | 1019.8 |
| 20260906130250 | 68 | 0 | 3.0 | 6.0 | 0.10 | 0.10 | 0.10 | 93 | 1019.9 |
| 20260906125744 | 68 | 0 | 2.0 | 6.0 | 0.10 | 0.10 | 0.10 | 93 | 1019.9 |
| 20260906125239 | 68 | 0 | 2.0 | 11.0 | 0.10 | 0.10 | 0.10 | 93 | 1019.8 |
| 20260906124725 | 68 | 0 | 3.0 | 11.0 | 0.10 | 0.10 | 0.10 | 93 | 1019.7 |
| 20260906124222 | 68 | 0 | 5.0 | 11.0 | 0.09 | 0.09 | 0.09 | 93 | 1019.4 |
| 20260906123711 | 68 | 0 | 7.0 | 14.0 | 0.09 | 0.09 | 0.09 | 92 | 1019.2 |
| 20260906123206 | 68 | 0 | 7.0 | 14.0 | 0.08 | 0.08 | 0.08 | 92 | 1019.4 |
| 20260906122923 | 68 | 0 | 7.0 | 13.0 | 0.05 | 0.05 | 0.05 | 92 | 1019.4 |
| 20260906122809 | 68 | 0 | 7.0 | 13.0 | 0.05 | 0.05 | 0.05 | 92 | 1019.4 |
| 20260906122216 | 68 | 0 | 5.0 | 12.0 | 0.03 | 0.03 | 0.03 | 92 | 1019.5 |
| 20260906121705 | 68 | 0 | 3.0 | 6.0 | 0.01 | 0.01 | 0.01 | 92 | 1020.1 |
| 20260906121203 | 68 | 0 | 3.0 | 8.0 | 0.00 | 0.00 | 0.00 | 92 | 1020.0 |
| 20260906120638 | 68 | 0 | 3.0 | 8.0 | 0.00 | 0.00 | 0.00 | 92 | 1020.0 |
| 20260906120620 | 68 | 0 | 3.0 | 8.0 | 0.00 | 0.00 | 0.00 | 92 | 1020.1 |
| 20260906120223 | 68 | 0 | 3.0 | 8.0 | 0.00 | 0.00 | 0.00 | 92 | 1020.1 |
| 20260906115617 | 68 | 0 | 4.0 | 9.0 | 0.00 | 0.00 | 0.00 | 92 | 1020.2 |
| 20260906115409 | 68 | 0 | 4.0 | 9.0 | 0.00 | 0.00 | 0.00 | 92 | 1020.1 |
| 20260906114605 | 68 | 0 | 4.0 | 9.0 | 0.00 | 0.00 | 0.00 | 92 | 1020.1 |
| 20260906114101 | 68 | 0 | 5.0 | 10.0 | 0.00 | 0.00 | 0.00 | 91 | 1020.0 |
| 20260906113601 | 68 | 0 | 5.0 | 10.0 | 0.00 | 0.00 | 0.00 | 91 | 1019.9 |
| 20260906113257 | 68 | 0 | 4.0 | 10.0 | 0.00 | 0.00 | 0.00 | 91 | 1019.9 |
| 20260906113133 | 68 | 0 | 4.0 | 10.0 | 0.00 | 0.00 | 0.00 | 91 | 1019.9 |
| 20260906112505 | 68 | 0 | 3.0 | 9.0 | 0.00 | 0.00 | 0.00 | 91 | 1020.0 |
| 20260906111935 | 68 | 0 | 3.0 | 10.0 | 0.00 | 0.00 | 0.00 | 91 | 1020.0 |
| 20260906111414 | 68 | 0 | 3.0 | 10.0 | 0.00 | 0.00 | 0.00 | 91 | 1020.0 |
| 20260906110841 | 68 | 0 | 3.0 | 10.0 | 0.00 | 0.00 | 0.00 | 90 | 1020.0 |
| 20260906110314 | 68 | 0 | 4.0 | 10.0 | 0.00 | 0.00 | 0.00 | 90 | 1019.9 |
| 20260906110035 | 68 | 0 | 4.0 | 10.0 | 0.00 | 0.00 | 0.00 | 90 | 1019.9 |
| 20260906105920 | 68 | 0 | 4.0 | 10.0 | 0.00 | 0.00 | 0.00 | 90 | 1019.9 |
| 20260906105247 | 68 | 0 | 4.0 | 10.0 | 0.00 | 0.00 | 0.00 | 90 | 1019.9 |
| 20260906104948 | 68 | 0 | 3.0 | 9.0 | 0.00 | 0.00 | 0.00 | 89 | 1019.7 |
| 20260906104826 | 68 | 0 | 3.0 | 9.0 | 0.00 | 0.00 | 0.00 | 89 | 1019.7 |
| 20260906104156 | 68 | 0 | 3.0 | 8.0 | 0.00 | 0.00 | 0.00 | 89 | 1019.7 |
| 20260906103702 | 68 | 0 | 3.0 | 9.0 | 0.00 | 0.00 | 0.00 | 89 | 1019.4 |
| 20260906103151 | 68 | 0 | 3.0 | 9.0 | 0.00 | 0.00 | 0.00 | 88 | 1019.7 |
| 20260906102628 | 69 | 0 | 3.0 | 10.0 | 0.00 | 0.00 | 0.00 | 88 | 1019.5 |
| 20260906102102 | 69 | 0 | 4.0 | 13.0 | 0.00 | 0.00 | 0.00 | 88 | 1019.5 |
| 20260906101828 | 69 | 0 | 5.0 | 13.0 | 0.00 | 0.00 | 0.00 | 87 | 1019.5 |
| 20260906101705 | 69 | 0 | 5.0 | 13.0 | 0.00 | 0.00 | 0.00 | 87 | 1019.5 |
| 20260906101035 | 69 | 0 | 5.0 | 17.0 | 0.00 | 0.00 | 0.00 | 86 | 1019.3 |
| 20260906100538 | 70 | 0 | 7.0 | 19.0 | 0.00 | 0.00 | 0.00 | 84 | 1019.1 |
| 20260906100518 | 69 | 0 | 6.0 | 17.0 | 0.00 | 0.00 | 0.00 | 86 | 1019.1 |
| 20260906100126 | 70 | 0 | 7.0 | 19.0 | 0.00 | 0.00 | 0.00 | 84 | 1019.1 |
| 20260906095514 | 70 | 0 | 6.0 | 19.0 | 0.00 | 0.00 | 0.00 | 83 | 1019.0 |
| 20260906095015 | 71 | 0 | 6.0 | 14.0 | 0.00 | 0.00 | 0.00 | 81 | 1019.2 |
| 20260906094450 | 72 | 0 | 6.0 | 14.0 | 0.00 | 0.00 | 0.00 | 79 | 1019.0 |
| 20260906093949 | 73 | 0 | 4.0 | 14.0 | 0.00 | 0.00 | 0.00 | 77 | 1018.9 |
| 20260906093452 | 73 | 0 | 3.0 | 9.0 | 0.00 | 0.00 | 0.00 | 76 | 1018.9 |
| 20260906093148 | 74 | 0 | 3.0 | 6.0 | 0.00 | 0.00 | 0.00 | 76 | 1018.7 |
| 20260906093032 | 74 | 0 | 3.0 | 6.0 | 0.00 | 0.00 | 0.00 | 76 | 1018.7 |
| 20260906092428 | 74 | 0 | 4.0 | 11.0 | 0.00 | 0.00 | 0.00 | 74 | 1018.6 |
| 20260906091904 | 74 | 0 | 4.0 | 11.0 | 0.00 | 0.00 | 0.00 | 74 | 1018.6 |
| 20260906091620 | 75 | 0 | 2.0 | 5.0 | 0.00 | 0.00 | 0.00 | 72 | 1018.3 |
| 20260906091503 | 75 | 0 | 2.0 | 5.0 | 0.00 | 0.00 | 0.00 | 72 | 1018.3 |
| 20260906090857 | 75 | 0 | 2.0 | 4.0 | 0.00 | 0.00 | 0.00 | 71 | 1018.1 |
| 20260906090618 | 76 | 0 | 2.0 | 5.0 | 0.00 | 0.00 | 0.00 | 70 | 1018.0 |
| 20260906090503 | 76 | 0 | 2.0 | 5.0 | 0.00 | 0.00 | 0.00 | 70 | 1018.0 |
| 20260906085856 | 76 | 0 | 3.0 | 8.0 | 0.00 | 0.00 | 0.00 | 68 | 1017.9 |
| 20260906085354 | 76 | 0 | 3.0 | 8.0 | 0.00 | 0.00 | 0.00 | 68 | 1017.9 |
| 20260906084845 | 76 | 0 | 2.0 | 6.0 | 0.00 | 0.00 | 0.00 | 65 | 1017.8 |
| 20260906084619 | 76 | 0 | 2.0 | 5.0 | 0.00 | 0.00 | 0.00 | 65 | 1017.8 |
| 20260906084451 | 76 | 0 | 2.0 | 5.0 | 0.00 | 0.00 | 0.00 | 65 | 1017.8 |
| 20260906083845 | 76 | 0 | 1.0 | 6.0 | 0.00 | 0.00 | 0.00 | 65 | 1017.8 |
| 20260906083319 | 76 | 0 | 1.0 | 6.0 | 0.00 | 0.00 | 0.00 | 65 | 1017.7 |
| 20260906082812 | 76 | 0 | 2.0 | 4.0 | 0.00 | 0.00 | 0.00 | 65 | 1017.7 |
| 20260906082309 | 76 | 0 | 2.0 | 4.0 | 0.00 | 0.00 | 0.00 | 65 | 1017.7 |
| 20260906081806 | 76 | 0 | 1.0 | 4.0 | 0.00 | 0.00 | 0.00 | 64 | 1017.8 |
| 20260906081239 | 76 | 0 | 1.0 | 9.0 | 0.00 | 0.00 | 0.00 | 64 | 1017.8 |
| 20260906080715 | 77 | 0 | 2.0 | 8.0 | 0.00 | 0.00 | 0.00 | 64 | 1017.8 |
| 20260906080206 | 77 | 0 | 3.0 | 10.0 | 0.00 | 0.00 | 0.00 | 64 | 1017.8 |
| 20260906075705 | 77 | 0 | 3.0 | 5.0 | 0.00 | 0.00 | 0.00 | 63 | 1017.8 |
| 20260906075142 | 77 | 0 | 3.0 | 11.0 | 0.00 | 0.00 | 0.00 | 63 | 1017.9 |
| 20260906074848 | 77 | 0 | 3.0 | 8.0 | 0.00 | 0.00 | 0.00 | 63 | 1017.9 |
| 20260906074724 | 77 | 0 | 3.0 | 8.0 | 0.00 | 0.00 | 0.00 | 63 | 1017.9 |
| 20260906074054 | 77 | 0 | 3.0 | 8.0 | 0.00 | 0.00 | 0.00 | 62 | 1017.9 |
| 20260906073538 | 78 | 0 | 3.0 | 10.0 | 0.00 | 0.00 | 0.00 | 62 | 1018.0 |
| 20260906073010 | 78 | 0 | 3.0 | 10.0 | 0.00 | 0.00 | 0.00 | 62 | 1018.0 |
| 20260906072454 | 78 | 0 | 3.0 | 10.0 | 0.00 | 0.00 | 0.00 | 61 | 1017.9 |
| 20260906071426 | 78 | 0 | 3.0 | 11.0 | 0.00 | 0.00 | 0.00 | 61 | 1018.0 |
| 20260906070913 | 78 | 0 | 4.0 | 11.0 | 0.00 | 0.00 | 0.00 | 61 | 1017.9 |
| 20260906070411 | 78 | 0 | 3.0 | 10.0 | 0.00 | 0.00 | 0.00 | 61 | 1017.9 |
| 20260906065909 | 78 | 0 | 2.0 | 6.0 | 0.00 | 0.00 | 0.00 | 61 | 1018.0 |
| 20260906065411 | 78 | 0 | 3.0 | 6.0 | 0.00 | 0.00 | 0.00 | 61 | 1018.0 |
| 20260906064910 | 78 | 0 | 2.0 | 8.0 | 0.00 | 0.00 | 0.00 | 61 | 1018.1 |
| 20260906064339 | 78 | 0 | 3.0 | 8.0 | 0.00 | 0.00 | 0.00 | 61 | 1018.1 |
| 20260906063813 | 78 | 0 | 3.0 | 8.0 | 0.00 | 0.00 | 0.00 | 61 | 1018.1 |
| 20260906063254 | 78 | 0 | 3.0 | 8.0 | 0.00 | 0.00 | 0.00 | 61 | 1018.3 |
| 20260906062751 | 78 | 0 | 3.0 | 9.0 | 0.00 | 0.00 | 0.00 | 61 | 1018.3 |
| 20260906062225 | 78 | 0 | 3.0 | 9.0 | 0.00 | 0.00 | 0.00 | 62 | 1018.3 |
| 20260906061723 | 78 | 0 | 3.0 | 8.0 | 0.00 | 0.00 | 0.00 | 62 | 1018.4 |
| 20260906061219 | 78 | 0 | 3.0 | 8.0 | 0.00 | 0.00 | 0.00 | 62 | 1018.3 |
| 20260906060706 | 78 | 0 | 2.0 | 6.0 | 0.00 | 0.00 | 0.00 | 62 | 1018.2 |
| 20260906060202 | 78 | 0 | 3.0 | 8.0 | 0.00 | 0.00 | 0.00 | 62 | 1018.2 |
| 20260906055901 | 77 | 0 | 3.0 | 8.0 | 0.00 | 0.00 | 0.00 | 62 | 1018.2 |
| 20260906055741 | 77 | 0 | 3.0 | 8.0 | 0.00 | 0.00 | 0.00 | 62 | 1018.2 |
| 20260906055107 | 77 | 0 | 3.0 | 8.0 | 0.00 | 0.00 | 0.00 | 63 | 1018.3 |
| 20260906054602 | 77 | 0 | 2.0 | 8.0 | 0.00 | 0.00 | 0.00 | 62 | 1018.3 |
| 20260906054059 | 77 | 0 | 2.0 | 6.0 | 0.00 | 0.00 | 0.00 | 62 | 1018.0 |
| 20260906053556 | 77 | 0 | 2.0 | 4.0 | 0.00 | 0.00 | 0.00 | 62 | 1018.0 |
| 20260906053029 | 78 | 0 | 2.0 | 9.0 | 0.00 | 0.00 | 0.00 | 62 | 1018.0 |
| 20260906052530 | 78 | 0 | 3.0 | 10.0 | 0.00 | 0.00 | 0.00 | 62 | 1018.0 |
| 20260906052251 | 78 | 0 | 3.0 | 10.0 | 0.00 | 0.00 | 0.00 | 62 | 1018.0 |
| 20260906052134 | 78 | 0 | 3.0 | 10.0 | 0.00 | 0.00 | 0.00 | 62 | 1018.0 |
| 20260906051543 | 78 | 0 | 3.0 | 10.0 | 0.00 | 0.00 | 0.00 | 62 | 1017.8 |
| 20260906051011 | 78 | 0 | 3.0 | 10.0 | 0.00 | 0.00 | 0.00 | 61 | 1017.8 |
| 20260906050836 | 78 | 0 | 3.0 | 9.0 | 0.00 | 0.00 | 0.00 | 60 | 1017.9 |
| 20260906050758 | 78 | 0 | 3.0 | 9.0 | 0.00 | 0.00 | 0.00 | 60 | 1017.9 |
| 20260906045935 | 79 | 0 | 3.0 | 8.0 | 0.00 | 0.00 | 0.00 | 60 | 1018.0 |
| 20260906045424 | 79 | 0 | 3.0 | 8.0 | 0.00 | 0.00 | 0.00 | 60 | 1018.0 |
| 20260906044917 | 79 | 0 | 3.0 | 5.0 | 0.00 | 0.00 | 0.00 | 59 | 1017.9 |
| 20260906044416 | 79 | 0 | 3.0 | 6.0 | 0.00 | 0.00 | 0.00 | 59 | 1017.9 |
| 20260906044113 | 79 | 0 | 3.0 | 6.0 | 0.00 | 0.00 | 0.00 | 59 | 1017.9 |
| 20260906043954 | 79 | 0 | 3.0 | 6.0 | 0.00 | 0.00 | 0.00 | 59 | 1017.9 |
| 20260906043603 | 79 | 0 | 2.0 | 5.0 | 0.00 | 0.00 | 0.00 | 58 | 1018.0 |
| 20260906043449 | 79 | 0 | 2.0 | 5.0 | 0.00 | 0.00 | 0.00 | 58 | 1018.0 |
| 20260906043037 | 79 | 0 | 2.0 | 6.0 | 0.00 | 0.00 | 0.00 | 58 | 1018.0 |
| 20260906042924 | 79 | 0 | 2.0 | 6.0 | 0.00 | 0.00 | 0.00 | 58 | 1018.0 |
| 20260906042519 | 79 | 0 | 3.0 | 8.0 | 0.00 | 0.00 | 0.00 | 58 | 1018.0 |
| 20260906042358 | 79 | 0 | 3.0 | 8.0 | 0.00 | 0.00 | 0.00 | 58 | 1018.0 |
| 20260906041737 | 79 | 0 | 2.0 | 8.0 | 0.00 | 0.00 | 0.00 | 58 | 1017.9 |
| 20260906041647 | 79 | 0 | 2.0 | 8.0 | 0.00 | 0.00 | 0.00 | 58 | 1017.8 |
| 20260906041316 | 79 | 0 | 2.0 | 8.0 | 0.00 | 0.00 | 0.00 | 58 | 1017.8 |
| 20260906040709 | 79 | 0 | 2.0 | 8.0 | 0.00 | 0.00 | 0.00 | 58 | 1017.8 |
| 20260906040142 | 79 | 0 | 3.0 | 6.0 | 0.00 | 0.00 | 0.00 | 58 | 1017.9 |
| 20260906035639 | 79 | 0 | 3.0 | 8.0 | 0.00 | 0.00 | 0.00 | 58 | 1017.9 |
| 20260906035140 | 79 | 0 | 3.0 | 8.0 | 0.00 | 0.00 | 0.00 | 58 | 1017.8 |
| 20260906034636 | 79 | 0 | 3.0 | 8.0 | 0.00 | 0.00 | 0.00 | 58 | 1017.7 |
| 20260906034112 | 79 | 0 | 3.0 | 8.0 | 0.00 | 0.00 | 0.00 | 58 | 1017.8 |
| 20260906033605 | 80 | 0 | 3.0 | 8.0 | 0.00 | 0.00 | 0.00 | 57 | 1017.8 |
| 20260906033108 | 80 | 0 | 3.0 | 8.0 | 0.00 | 0.00 | 0.00 | 57 | 1017.9 |
| 20260906032535 | 80 | 0 | 3.0 | 9.0 | 0.00 | 0.00 | 0.00 | 57 | 1017.8 |
| 20260906032010 | 80 | 0 | 3.0 | 9.0 | 0.00 | 0.00 | 0.00 | 57 | 1017.9 |
| 20260906031506 | 80 | 0 | 3.0 | 8.0 | 0.00 | 0.00 | 0.00 | 56 | 1017.8 |
| 20260906030955 | 81 | 0 | 3.0 | 6.0 | 0.00 | 0.00 | 0.00 | 56 | 1017.8 |
| 20260906030441 | 81 | 0 | 3.0 | 6.0 | 0.00 | 0.00 | 0.00 | 56 | 1017.8 |
| 20260906025934 | 81 | 0 | 3.0 | 8.0 | 0.00 | 0.00 | 0.00 | 55 | 1017.7 |
| 20260906025923 | 81 | 0 | 3.0 | 6.0 | 0.00 | 0.00 | 0.00 | 56 | 1017.8 |
| 20260906025819 | 81 | 0 | 3.0 | 8.0 | 0.00 | 0.00 | 0.00 | 55 | 1017.7 |
| 20260906024830 | 81 | 0 | 3.0 | 8.0 | 0.00 | 0.00 | 0.00 | 55 | 1017.7 |
| 20260906024304 | 82 | 0 | 4.0 | 8.0 | 0.00 | 0.00 | 0.00 | 55 | 1017.6 |
| 20260906023804 | 82 | 0 | 4.0 | 8.0 | 0.00 | 0.00 | 0.00 | 55 | 1017.4 |
| 20260906023235 | 82 | 0 | 4.0 | 9.0 | 0.00 | 0.00 | 0.00 | 55 | 1017.5 |
| 20260906022714 | 82 | 0 | 4.0 | 9.0 | 0.00 | 0.00 | 0.00 | 55 | 1017.5 |
| 20260906022435 | 83 | 0 | 4.0 | 11.0 | 0.00 | 0.00 | 0.00 | 55 | 1017.5 |
| 20260906022320 | 83 | 0 | 4.0 | 11.0 | 0.00 | 0.00 | 0.00 | 55 | 1017.5 |
| 20260906021712 | 83 | 0 | 4.0 | 11.0 | 0.00 | 0.00 | 0.00 | 54 | 1017.5 |
| 20260906021138 | 83 | 0 | 4.0 | 9.0 | 0.00 | 0.00 | 0.00 | 53 | 1017.5 |
| 20260906020632 | 83 | 0 | 3.0 | 8.0 | 0.00 | 0.00 | 0.00 | 53 | 1017.4 |
| 20260906020132 | 84 | 0 | 3.0 | 8.0 | 0.00 | 0.00 | 0.00 | 53 | 1017.1 |
| 20260906020021 | 84 | 0 | 4.0 | 8.0 | 0.00 | 0.00 | 0.00 | 52 | 1017.1 |
| 20260906015926 | 84 | 0 | 4.0 | 8.0 | 0.00 | 0.00 | 0.00 | 52 | 1017.1 |
| 20260906015724 | 84 | 0 | 4.0 | 8.0 | 0.00 | 0.00 | 0.00 | 52 | 1017.1 |
| 20260906015225 | 84 | 0 | 4.0 | 8.0 | 0.00 | 0.00 | 0.00 | 52 | 1017.1 |
| 20260906014555 | 84 | 0 | 3.0 | 10.0 | 0.00 | 0.00 | 0.00 | 51 | 1017.1 |
| 20260906014029 | 85 | 0 | 4.0 | 10.0 | 0.00 | 0.00 | 0.00 | 51 | 1017.1 |
| 20260906013738 | 85 | 0 | 4.0 | 11.0 | 0.00 | 0.00 | 0.00 | 50 | 1017.1 |
| 20260906013622 | 85 | 0 | 4.0 | 11.0 | 0.00 | 0.00 | 0.00 | 50 | 1017.1 |
| 20260906013012 | 85 | 0 | 5.0 | 11.0 | 0.00 | 0.00 | 0.00 | 50 | 1017.0 |
| 20260906012515 | 86 | 0 | 4.0 | 11.0 | 0.00 | 0.00 | 0.00 | 49 | 1017.1 |
| 20260906012000 | 86 | 0 | 6.0 | 13.0 | 0.00 | 0.00 | 0.00 | 49 | 1016.9 |
| 20260906011443 | 86 | 0 | 6.0 | 13.0 | 0.00 | 0.00 | 0.00 | 48 | 1016.9 |
| 20260906011148 | 87 | 0 | 5.0 | 14.0 | 0.00 | 0.00 | 0.00 | 47 | 1016.6 |
| 20260906011024 | 87 | 0 | 5.0 | 14.0 | 0.00 | 0.00 | 0.00 | 47 | 1016.6 |
| 20260906010356 | 87 | 0 | 5.0 | 13.0 | 0.00 | 0.00 | 0.00 | 47 | 1016.5 |
| 20260906005834 | 88 | 0 | 5.0 | 13.0 | 0.00 | 0.00 | 0.00 | 46 | 1016.4 |
| 20260906005317 | 88 | 0 | 5.0 | 13.0 | 0.00 | 0.00 | 0.00 | 45 | 1016.3 |
| 20260906004801 | 89 | 0 | 5.0 | 13.0 | 0.00 | 0.00 | 0.00 | 44 | 1016.1 |
| 20260906004633 | 89 | 0 | 6.0 | 17.0 | 0.00 | 0.00 | 0.00 | 43 | 1016.0 |
| 20260906004558 | 89 | 0 | 6.0 | 17.0 | 0.00 | 0.00 | 0.00 | 43 | 1016.0 |
| 20260906003742 | 90 | 0 | 7.0 | 17.0 | 0.00 | 0.00 | 0.00 | 42 | 1016.1 |
| 20260906003244 | 91 | 0 | 8.0 | 17.0 | 0.00 | 0.00 | 0.00 | 41 | 1016.1 |
| 20260906002939 | 92 | 148 | 5.0 | 17.0 | 0.00 | 0.00 | 0.00 | 39 | 1016.0 |
| 20260906002820 | 92 | 148 | 5.0 | 17.0 | 0.00 | 0.00 | 0.00 | 39 | 1016.0 |
| 20260906002149 | 93 | 155 | 3.0 | 8.0 | 0.00 | 0.00 | 0.00 | 35 | 1015.7 |
| 20260906001647 | 94 | 146 | 3.0 | 8.0 | 0.00 | 0.00 | 0.00 | 34 | 1015.6 |
| 20260906001129 | 94 | 184 | 3.0 | 8.0 | 0.00 | 0.00 | 0.00 | 34 | 1015.8 |
| 20260906000606 | 94 | 87 | 3.0 | 13.0 | 0.00 | 0.00 | 0.00 | 33 | 1015.8 |
| 20260906000104 | 95 | 144 | 4.0 | 11.0 | 0.00 | 0.00 | 0.00 | 33 | 1015.7 |
| 20260905235541 | 95 | 153 | 5.0 | 14.0 | 0.00 | 0.00 | 0.00 | 33 | 1015.8 |
| 20260905235042 | 95 | 118 | 4.0 | 14.0 | 0.00 | 0.00 | 0.00 | 33 | 1015.8 |
| 20260905234515 | 95 | 213 | 3.0 | 11.0 | 0.00 | 0.00 | 0.00 | 33 | 1015.8 |
| 20260905234233 | 95 | 147 | 4.0 | 13.0 | 0.00 | 0.00 | 0.00 | 33 | 1015.7 |
| 20260905234115 | 95 | 147 | 4.0 | 13.0 | 0.00 | 0.00 | 0.00 | 33 | 1015.7 |
| 20260905233450 | 95 | 147 | 4.0 | 13.0 | 0.00 | 0.00 | 0.00 | 33 | 1015.8 |
| 20260905233203 | 95 | 113 | 3.0 | 9.0 | 0.00 | 0.00 | 0.00 | 33 | 1015.8 |
| 20260905233034 | 95 | 113 | 3.0 | 9.0 | 0.00 | 0.00 | 0.00 | 33 | 1015.8 |
| 20260905232402 | 95 | 171 | 4.0 | 13.0 | 0.00 | 0.00 | 0.00 | 33 | 1015.8 |
| 20260905232100 | 95 | 174 | 4.0 | 13.0 | 0.00 | 0.00 | 0.00 | 34 | 1015.6 |
| 20260905231938 | 95 | 174 | 4.0 | 13.0 | 0.00 | 0.00 | 0.00 | 34 | 1015.6 |
| 20260905231326 | 95 | 142 | 4.0 | 12.0 | 0.00 | 0.00 | 0.00 | 34 | 1015.6 |
| 20260905230803 | 95 | 142 | 4.0 | 9.0 | 0.00 | 0.00 | 0.00 | 35 | 1015.5 |
| 20260905230302 | 95 | 132 | 5.0 | 13.0 | 0.00 | 0.00 | 0.00 | 36 | 1015.4 |
| 20260905225730 | 95 | 155 | 6.0 | 14.0 | 0.00 | 0.00 | 0.00 | 36 | 1015.5 |
| 20260905225203 | 95 | 112 | 6.0 | 14.0 | 0.00 | 0.00 | 0.00 | 35 | 1015.4 |
| 20260905224634 | 95 | 113 | 6.0 | 16.0 | 0.00 | 0.00 | 0.00 | 35 | 1015.4 |
| 20260905224123 | 96 | 115 | 7.0 | 16.0 | 0.00 | 0.00 | 0.00 | 35 | 1015.4 |
| 20260905223623 | 96 | 163 | 5.0 | 15.0 | 0.00 | 0.00 | 0.00 | 34 | 1015.4 |
| 20260905223413 | 97 | 148 | 3.0 | 13.0 | 0.00 | 0.00 | 0.00 | 34 | 1015.5 |
| 20260905222615 | 97 | 102 | 5.0 | 16.0 | 0.00 | 0.00 | 0.00 | 34 | 1015.5 |
| 20260905222048 | 97 | 111 | 6.0 | 16.0 | 0.00 | 0.00 | 0.00 | 34 | 1015.4 |
| 20260905221543 | 97 | 109 | 6.0 | 12.0 | 0.00 | 0.00 | 0.00 | 34 | 1015.5 |
| 20260905221041 | 97 | 128 | 5.0 | 12.0 | 0.00 | 0.00 | 0.00 | 33 | 1015.4 |
| 20260905220539 | 98 | 106 | 5.0 | 12.0 | 0.00 | 0.00 | 0.00 | 33 | 1015.6 |
| 20260905220036 | 97 | 155 | 5.0 | 13.0 | 0.00 | 0.00 | 0.00 | 33 | 1015.6 |
| 20260905215534 | 98 | 92 | 5.0 | 13.0 | 0.00 | 0.00 | 0.00 | 32 | 1015.7 |
| 20260905215029 | 98 | 148 | 5.0 | 12.0 | 0.00 | 0.00 | 0.00 | 32 | 1015.7 |
| 20260905214510 | 98 | 150 | 5.0 | 12.0 | 0.00 | 0.00 | 0.00 | 30 | 1015.8 |
| 20260905214012 | 98 | 171 | 5.0 | 15.0 | 0.00 | 0.00 | 0.00 | 31 | 1015.9 |
| 20260905213510 | 98 | 217 | 5.0 | 15.0 | 0.00 | 0.00 | 0.00 | 32 | 1015.8 |
| 20260905213227 | 98 | 146 | 5.0 | 13.0 | 0.00 | 0.00 | 0.00 | 30 | 1015.8 |
| 20260905213057 | 98 | 146 | 5.0 | 13.0 | 0.00 | 0.00 | 0.00 | 30 | 1015.8 |
| 20260905212454 | 98 | 115 | 5.0 | 10.0 | 0.00 | 0.00 | 0.00 | 31 | 1016.0 |
| 20260905212152 | 98 | 154 | 5.0 | 14.0 | 0.00 | 0.00 | 0.00 | 32 | 1016.1 |
| 20260905212037 | 98 | 154 | 5.0 | 14.0 | 0.00 | 0.00 | 0.00 | 32 | 1016.1 |
| 20260905211428 | 98 | 160 | 5.0 | 14.0 | 0.00 | 0.00 | 0.00 | 30 | 1016.3 |
| 20260905211118 | 98 | 143 | 5.0 | 11.0 | 0.00 | 0.00 | 0.00 | 31 | 1016.4 |
| 20260905210957 | 98 | 143 | 5.0 | 11.0 | 0.00 | 0.00 | 0.00 | 31 | 1016.4 |
| 20260905210324 | 98 | 140 | 5.0 | 13.0 | 0.00 | 0.00 | 0.00 | 32 | 1016.4 |
| 20260905205821 | 98 | 159 | 5.0 | 13.0 | 0.00 | 0.00 | 0.00 | 31 | 1016.5 |
| 20260905205308 | 97 | 159 | 6.0 | 14.0 | 0.00 | 0.00 | 0.00 | 31 | 1016.6 |
| 20260905204744 | 97 | 129 | 6.0 | 14.0 | 0.00 | 0.00 | 0.00 | 30 | 1016.8 |
| 20260905204223 | 97 | 145 | 6.0 | 17.0 | 0.00 | 0.00 | 0.00 | 30 | 1016.8 |
| 20260905203929 | 97 | 172 | 7.0 | 17.0 | 0.00 | 0.00 | 0.00 | 31 | 1016.9 |
| 20260905203808 | 97 | 172 | 7.0 | 17.0 | 0.00 | 0.00 | 0.00 | 31 | 1016.9 |
| 20260905203203 | 97 | 121 | 7.0 | 14.0 | 0.00 | 0.00 | 0.00 | 31 | 1016.8 |
| 20260905202703 | 97 | 103 | 6.0 | 14.0 | 0.00 | 0.00 | 0.00 | 30 | 1016.9 |